EW1669 Weather Reports


time (UTC)temp
F
wind
direction
speed
knots
gust
knots
rain 1hr
in
rain 24hr
in
rain mn
in
humidity
%
barometer
mb
20260831014655 88 150 0.9 8.7 0.00 0.00 0.00 29 1016.7
20260831013928 89 132 1.7 8.7 0.00 0.00 0.00 28 1017.0
20260831013427 89 129 3.5 7.8 0.00 0.00 0.00 28 1016.7
20260831012926 89 138 0.9 7.8 0.00 0.00 0.00 27 1016.7
20260831012424 90 125 0.0 7.0 0.00 0.00 0.00 27 1017.0
20260831011923 90 122 2.6 6.1 0.00 0.00 0.00 27 1016.7
20260831011415 90 126 0.0 11.3 0.00 0.00 0.00 27 1017.0
20260831011132 91 148 0.9 11.3 0.00 0.00 0.00 26 1016.7
20260831010358 91 142 0.0 9.6 0.00 0.00 0.00 26 1016.7
20260831005854 91 137 1.7 11.3 0.00 0.00 0.00 26 1016.7
20260831005352 91 109 0.9 13.0 0.00 0.00 0.00 26 1017.0
20260831004847 92 117 3.5 13.0 0.00 0.00 0.00 26 1016.7
20260831004344 92 117 4.3 13.0 0.00 0.00 0.00 26 1016.7
20260831003835 92 175 4.3 13.0 0.00 0.00 0.00 25 1016.7
20260831003324 92 113 7.8 13.0 0.00 0.00 0.00 25 1017.0
20260831002820 93 136 0.9 11.3 0.00 0.00 0.00 25 1016.7
20260831002306 93 139 0.9 11.3 0.00 0.00 0.00 24 1016.7
20260831001759 93 114 7.8 11.3 0.00 0.00 0.00 24 1016.7
20260831001251 94 122 5.2 9.6 0.00 0.00 0.00 24 1016.7
20260831000746 94 138 0.9 12.2 0.00 0.00 0.00 24 1016.7
20260831000236 94 153 6.1 12.2 0.00 0.00 0.00 24 1017.0
20260830235726 94 124 0.0 7.0 0.00 0.00 0.00 24 1016.7
20260830235212 95 135 0.9 9.6 0.00 0.00 0.00 24 1017.0
20260830234701 94 151 1.7 8.7 0.00 0.00 0.00 23 1017.0
20260830234200 95 140 0.0 8.7 0.00 0.00 0.00 24 1017.0
20260830233645 95 163 6.1 11.3 0.00 0.00 0.00 23 1016.7
20260830233404 95 142 5.2 13.0 0.00 0.00 0.00 24 1016.7
20260830232633 94 118 3.5 13.0 0.00 0.00 0.00 24 1016.7
20260830232130 94 169 3.5 7.0 0.00 0.00 0.00 24 1016.7
20260830231849 95 128 0.0 3.5 0.00 0.00 0.00 23 1016.7
20260830231120 95 158 0.0 3.5 0.00 0.00 0.00 24 1017.0
20260830230620 95 113 1.7 7.0 0.00 0.00 0.00 24 1016.7
20260830230114 96 158 0.0 7.0 0.00 0.00 0.00 23 1016.7
20260830225604 97 141 0.0 11.3 0.00 0.00 0.00 23 1016.7
20260830225056 96 198 0.0 11.3 0.00 0.00 0.00 22 1016.7
20260830224550 96 112 0.9 12.2 0.00 0.00 0.00 23 1016.7
20260830224037 96 124 1.7 12.2 0.00 0.00 0.00 23 1016.7
20260830223538 96 138 0.9 6.1 0.00 0.00 0.00 23 1016.7
20260830223027 96 115 0.0 6.1 0.00 0.00 0.00 23 1017.0
20260830222743 98 160 0.0 7.0 0.00 0.00 0.00 22 1016.7
20260830222504 98 110 0.0 7.0 0.00 0.00 0.00 22 1016.7
20260830221721 98 147 0.9 8.7 0.00 0.00 0.00 22 1017.0
20260830220952 98 156 4.3 8.7 0.00 0.00 0.00 22 1017.0
20260830220440 98 125 0.0 3.5 0.00 0.00 0.00 22 1017.0
20260830215940 98 163 0.0 3.5 0.00 0.00 0.00 22 1017.0
20260830215430 97 141 0.9 5.2 0.00 0.00 0.00 23 1017.0
20260830214926 97 156 0.0 5.2 0.00 0.00 0.00 22 1017.0
20260830214426 97 167 1.7 8.7 0.00 0.00 0.00 22 1016.7
20260830213925 96 126 0.0 8.7 0.00 0.00 0.00 23 1017.3
20260830213419 98 153 0.0 0.9 0.00 0.00 0.00 22 1017.0
20260830212904 99 150 0.0 7.0 0.00 0.00 0.00 22 1017.3
20260830212404 98 148 0.0 7.0 0.00 0.00 0.00 22 1017.0
20260830211854 98 126 0.9 8.7 0.00 0.00 0.00 21 1017.0
20260830211339 99 169 0.0 8.7 0.00 0.00 0.00 21 1017.0
20260830210835 98 206 0.0 8.7 0.00 0.00 0.00 21 1017.3
20260830210330 97 180 1.7 8.7 0.00 0.00 0.00 22 1017.7
20260830205817 96 148 0.0 6.1 0.00 0.00 0.00 24 1017.3
20260830205535 96 122 0.0 6.1 0.00 0.00 0.00 23 1017.7
20260830204806 98 208 0.0 2.6 0.00 0.00 0.00 22 1017.3
20260830204248 97 120 0.9 2.6 0.00 0.00 0.00 23 1017.3
20260830203741 97 195 0.0 0.0 0.00 0.00 0.00 22 1017.7
20260830203233 98 122 0.0 5.2 0.00 0.00 0.00 22 1018.0
20260830202732 98 202 0.0 7.8 0.00 0.00 0.00 22 1018.0
20260830202215 97 116 0.0 7.8 0.00 0.00 0.00 23 1018.0
20260830201933 97 130 1.7 7.8 0.00 0.00 0.00 23 1018.0
20260830201204 96 168 0.0 2.6 0.00 0.00 0.00 24 1018.0
20260830200652 98 195 0.0 0.0 0.00 0.00 0.00 23 1018.3
20260830200148 100 181 0.0 0.0 0.00 0.00 0.00 22 1018.3
20260830195637 98 313 0.0 0.9 0.00 0.00 0.00 23 1018.3
20260830195356 97 119 0.0 0.9 0.00 0.00 0.00 23 1018.7
20260830194855 99 176 0.0 11.3 0.00 0.00 0.00 23 1018.3
20260830194131 98 149 0.0 11.3 0.00 0.00 0.00 23 1018.3
20260830193623 99 186 0.0 1.7 0.00 0.00 0.00 22 1018.3
20260830193117 100 171 0.0 1.7 0.00 0.00 0.00 21 1018.7
20260830192605 99 124 0.9 6.1 0.00 0.00 0.00 22 1018.3
20260830192054 98 173 0.9 6.1 0.00 0.00 0.00 22 1018.7
20260830191812 98 183 0.0 6.1 0.00 0.00 0.00 23 1018.7
20260830191045 99 197 0.0 6.1 0.00 0.00 0.00 22 1018.7
20260830190541 98 171 0.0 5.2 0.00 0.00 0.00 22 1018.7
20260830190033 97 145 0.0 7.8 0.00 0.00 0.00 24 1018.7
20260830185530 98 181 0.0 7.8 0.00 0.00 0.00 24 1018.7
20260830185023 99 204 0.0 5.2 0.00 0.00 0.00 23 1018.7
20260830184515 98 262 0.0 7.0 0.00 0.00 0.00 24 1018.7
20260830184006 96 208 0.0 7.0 0.00 0.00 0.00 24 1018.7
20260830183457 96 173 0.0 6.1 0.00 0.00 0.00 25 1018.7
20260830182955 98 189 0.0 6.1 0.00 0.00 0.00 23 1019.4
20260830182705 98 159 2.6 5.2 0.00 0.00 0.00 24 1019.0
20260830181943 98 140 0.0 0.0 0.00 0.00 0.00 23 1019.0
20260830181444 97 188 0.0 7.0 0.00 0.00 0.00 24 1019.4
20260830180935 97 173 0.0 7.0 0.00 0.00 0.00 24 1019.4
20260830180425 96 194 0.0 6.1 0.00 0.00 0.00 25 1019.4
20260830175912 97 192 0.0 1.7 0.00 0.00 0.00 24 1019.4
20260830175413 96 133 0.0 11.3 0.00 0.00 0.00 26 1019.4
20260830174901 96 207 0.0 11.3 0.00 0.00 0.00 24 1019.7
20260830174606 95 174 0.0 1.7 0.00 0.00 0.00 25 1019.7
20260830173837 96 173 0.0 3.5 0.00 0.00 0.00 25 1019.4
20260830173333 96 155 1.7 8.7 0.00 0.00 0.00 24 1019.4
20260830172830 94 176 0.9 8.7 0.00 0.00 0.00 26 1019.4
20260830172312 96 206 0.0 3.5 0.00 0.00 0.00 25 1019.4
20260830171807 94 180 0.0 6.1 0.00 0.00 0.00 27 1019.4
20260830171256 93 158 0.0 6.1 0.00 0.00 0.00 28 1019.7
20260830170744 93 177 0.0 5.2 0.00 0.00 0.00 30 1019.7
20260830170233 93 182 0.0 5.2 0.00 0.00 0.00 30 1020.0
20260830165713 92 128 0.9 5.2 0.00 0.00 0.00 32 1020.0
20260830165158 92 137 0.0 5.2 0.00 0.00 0.00 32 1020.0
20260830164644 91 171 0.0 7.0 0.00 0.00 0.00 32 1020.0
20260830164135 91 106 0.0 7.0 0.00 0.00 0.00 33 1020.0
20260830163635 89 181 3.5 7.0 0.00 0.00 0.00 35 1020.0
20260830163127 90 148 0.0 6.1 0.00 0.00 0.00 35 1020.0
20260830162613 89 156 0.0 7.0 0.00 0.00 0.00 37 1020.0
20260830162106 88 193 2.6 8.7 0.00 0.00 0.00 36 1020.0
20260830161555 88 119 0.0 8.7 0.00 0.00 0.00 38 1020.0
20260830161041 88 187 0.0 8.7 0.00 0.00 0.00 37 1020.0
20260830160527 88 131 3.5 7.8 0.00 0.00 0.00 38 1020.0
20260830160013 89 180 1.7 6.1 0.00 0.00 0.00 37 1020.0
20260830155502 87 165 0.0 5.2 0.00 0.00 0.00 38 1020.0
20260830154947 87 159 0.0 6.1 0.00 0.00 0.00 39 1020.0
20260830154435 87 177 3.5 6.1 0.00 0.00 0.00 40 1020.0
20260830153936 86 204 1.7 6.1 0.00 0.00 0.00 40 1020.0
20260830153429 86 191 1.7 6.1 0.00 0.00 0.00 40 1020.4
20260830153141 85 152 0.0 6.1 0.00 0.00 0.00 42 1020.0
20260830152404 84 180 0.0 5.2 0.00 0.00 0.00 42 1020.0
20260830151851 84 205 0.0 7.0 0.00 0.00 0.00 44 1020.0
20260830151552 83 223 0.0 9.6 0.00 0.00 0.00 46 1019.7
20260830150831 82 214 0.0 9.6 0.00 0.00 0.00 47 1020.0
20260830150327 82 199 0.0 8.7 0.00 0.00 0.00 47 1020.0
20260830145827 81 135 0.0 7.8 0.00 0.00 0.00 48 1020.0
20260830145328 81 212 4.3 7.8 0.00 0.00 0.00 50 1020.0
20260830144823 80 191 4.3 7.8 0.00 0.00 0.00 50 1020.0
20260830144324 80 182 0.9 7.0 0.00 0.00 0.00 51 1020.0
20260830143811 79 192 0.9 7.0 0.00 0.00 0.00 52 1020.0
20260830143313 79 193 4.3 7.8 0.00 0.00 0.00 52 1020.4
20260830143034 78 181 2.6 7.8 0.00 0.00 0.00 53 1020.0
20260830142312 78 197 3.5 6.1 0.00 0.00 0.00 54 1020.0
20260830141806 77 208 0.0 7.0 0.00 0.00 0.00 55 1020.4
20260830141522 76 142 5.2 7.0 0.00 0.00 0.00 56 1020.4
20260830140746 76 120 0.0 7.0 0.00 0.00 0.00 56 1020.0
20260830140232 76 196 2.6 6.1 0.00 0.00 0.00 56 1020.4
20260830135732 76 159 2.6 6.1 0.00 0.00 0.00 57 1020.4
20260830135218 76 188 4.3 6.1 0.00 0.00 0.00 57 1020.4
20260830134712 75 190 0.0 6.1 0.00 0.00 0.00 57 1020.4
20260830134212 75 198 0.0 7.0 0.00 0.00 0.00 58 1020.0
20260830133934 75 176 2.6 7.8 0.00 0.00 0.00 58 1020.0
20260830133414 74 204 6.1 7.8 0.00 0.00 0.00 58 1020.0
20260830132640 74 197 1.7 6.1 0.00 0.00 0.00 58 1019.7
20260830132134 74 194 2.6 6.1 0.00 0.00 0.00 59 1020.0
20260830131627 73 211 3.5 6.1 0.00 0.00 0.00 60 1020.0
20260830131333 73 186 4.3 6.1 0.00 0.00 0.00 60 1020.0
20260830130613 73 152 0.0 3.5 0.00 0.00 0.00 60 1020.0
20260830130057 73 225 2.6 7.0 0.00 0.00 0.00 60 1019.7
20260830125542 73 187 1.7 7.0 0.00 0.00 0.00 60 1019.7
20260830125038 72 193 2.6 5.2 0.00 0.00 0.00 60 1019.7
20260830124534 72 132 1.7 5.2 0.00 0.00 0.00 60 1020.0
20260830124019 73 184 0.0 7.0 0.00 0.00 0.00 60 1019.7
20260830123509 73 194 0.0 7.0 0.00 0.00 0.00 59 1019.7
20260830122949 73 198 2.6 7.0 0.00 0.00 0.00 59 1019.7
20260830122650 73 201 3.5 7.0 0.00 0.00 0.00 58 1019.4
20260830122133 73 192 2.6 7.0 0.00 0.00 0.00 58 1019.7
20260830121406 73 199 3.5 7.0 0.00 0.00 0.00 58 1019.7
20260830120906 73 194 0.0 6.1 0.00 0.00 0.00 57 1019.7
20260830120403 73 206 0.0 7.0 0.00 0.00 0.00 57 1019.7
20260830120120 73 205 4.3 7.0 0.00 0.00 0.00 57 1019.4
20260830115338 73 201 2.6 7.0 0.00 0.00 0.00 56 1019.7
20260830115040 74 200 5.2 7.0 0.00 0.00 0.00 56 1019.4
20260830114324 74 211 6.1 7.8 0.00 0.00 0.00 56 1019.7
20260830113812 74 210 0.0 7.8 0.00 0.00 0.00 55 1019.7
20260830113305 74 200 3.5 7.0 0.00 0.00 0.00 55 1019.7
20260830112750 74 198 4.3 7.0 0.00 0.00 0.00 54 1019.7
20260830112235 74 198 0.0 6.1 0.00 0.00 0.00 54 1019.4
20260830111720 74 198 1.7 3.5 0.00 0.00 0.00 54 1019.7
20260830111207 74 196 0.0 3.5 0.00 0.00 0.00 54 1019.4
20260830110647 74 191 1.7 6.1 0.00 0.00 0.00 53 1019.7
20260830110133 74 190 0.9 6.1 0.00 0.00 0.00 53 1019.7
20260830105613 74 192 5.2 6.1 0.00 0.00 0.00 53 1019.7
20260830105113 74 185 4.3 7.0 0.00 0.00 0.00 53 1020.0
20260830104555 74 201 3.5 7.8 0.00 0.00 0.00 53 1020.0
20260830104039 74 193 0.0 7.8 0.00 0.00 0.00 53 1020.0
20260830103806 74 202 3.5 7.0 0.00 0.00 0.00 52 1019.4
20260830103030 75 212 0.0 7.0 0.00 0.00 0.00 52 1019.7
20260830102531 75 197 0.0 6.1 0.00 0.00 0.00 52 1019.4
20260830102031 75 182 0.0 6.1 0.00 0.00 0.00 51 1019.7
20260830101532 75 200 0.0 6.1 0.00 0.00 0.00 51 1019.4
20260830101027 74 198 0.9 5.2 0.00 0.00 0.00 51 1019.7
20260830100726 74 199 0.0 0.0 0.00 0.00 0.00 51 1019.7
20260830100008 74 189 0.0 0.9 0.00 0.00 0.00 50 1019.7
20260830095930 75 191 0.0 6.1 0.00 0.00 0.00 50 1019.7
20260830094929 75 205 3.5 6.1 0.00 0.00 0.00 50 1019.7
20260830094424 75 208 1.7 6.1 0.00 0.00 0.00 50 1019.4
20260830093918 75 182 0.0 6.1 0.00 0.00 0.00 49 1019.4
20260830093418 75 199 0.0 6.1 0.00 0.00 0.00 49 1019.4
20260830092919 75 199 4.3 6.1 0.00 0.00 0.00 49 1019.4
20260830092413 74 191 0.0 3.5 0.00 0.00 0.00 50 1019.4
20260830091855 74 180 0.0 0.0 0.00 0.00 0.00 50 1019.4
20260830091351 74 194 0.0 0.0 0.00 0.00 0.00 50 1019.4
20260830091054 73 189 0.0 0.0 0.00 0.00 0.00 50 1019.4
20260830090332 74 189 0.0 0.0 0.00 0.00 0.00 49 1019.4
20260830090051 74 187 0.0 0.0 0.00 0.00 0.00 49 1019.4
20260830085328 74 200 0.0 0.0 0.00 0.00 0.00 49 1019.4
20260830085035 74 184 0.0 0.0 0.00 0.00 0.00 48 1019.4
20260830084312 74 199 0.0 0.9 0.00 0.00 0.00 48 1019.4
20260830083809 75 196 0.0 0.9 0.00 0.00 0.00 47 1019.4
20260830083532 75 186 0.0 0.0 0.00 0.00 0.00 47 1019.4
20260830082751 75 190 0.0 0.0 0.00 0.00 0.00 47 1019.4
20260830082234 75 147 0.0 1.7 0.00 0.00 0.00 47 1019.4
20260830082215 75 181 0.0 1.7 0.00 0.00 0.00 46 1019.7
20260830081235 76 152 0.0 5.2 0.00 0.00 0.00 46 1019.4
20260830080948 76 174 0.0 5.2 0.00 0.00 0.00 46 1019.4
20260830080209 76 156 0.0 2.6 0.00 0.00 0.00 45 1019.7
20260830080014 76 137 0.0 0.9 0.00 0.00 0.00 46 1019.4
20260830075903 76 139 0.0 1.7 0.00 0.00 0.00 46 1019.7
20260830074922 75 144 0.0 1.7 0.00 0.00 0.00 46 1019.4
20260830074417 75 127 0.0 0.0 0.00 0.00 0.00 46 1019.4
20260830073653 75 135 0.0 0.0 0.00 0.00 0.00 46 1019.4
20260830073152 75 114 0.0 0.9 0.00 0.00 0.00 46 1019.4
20260830072639 76 160 0.0 0.9 0.00 0.00 0.00 46 1019.4
20260830072343 76 121 0.0 0.0 0.00 0.00 0.00 46 1019.7
20260830071624 76 148 0.0 0.0 0.00 0.00 0.00 46 1019.4
20260830071111 76 147 0.0 0.0 0.00 0.00 0.00 45 1019.7
20260830070609 76 137 0.0 0.0 0.00 0.00 0.00 46 1019.7
20260830070050 76 121 0.0 0.9 0.00 0.00 0.00 46 1019.7
20260830065545 76 129 0.0 0.9 0.00 0.00 0.00 46 1019.7
20260830065044 76 154 0.0 3.5 0.00 0.00 0.00 46 1019.4
20260830064530 76 160 0.0 3.5 0.00 0.00 0.00 45 1019.7
20260830064249 76 159 3.5 3.5 0.00 0.00 0.00 45 1019.7
20260830063526 77 139 0.0 6.1 0.00 0.00 0.00 45 1020.0
20260830063013 77 157 0.0 6.1 0.00 0.00 0.00 44 1020.0
20260830062512 77 150 0.0 6.1 0.00 0.00 0.00 44 1020.0
20260830062007 77 136 0.0 6.1 0.00 0.00 0.00 44 1020.0
20260830061452 77 153 3.5 6.1 0.00 0.00 0.00 43 1020.0
20260830060948 78 130 3.5 7.8 0.00 0.00 0.00 43 1019.7
20260830060654 78 141 0.0 7.8 0.00 0.00 0.00 43 1019.7
20260830060201 78 160 0.0 7.0 0.00 0.00 0.00 42 1019.7
20260830055413 78 136 2.6 7.0 0.00 0.00 0.00 42 1019.7
20260830054855 78 144 0.0 7.8 0.00 0.00 0.00 42 1019.7
20260830054355 78 139 4.3 7.8 0.00 0.00 0.00 42 1019.7
20260830054323 78 119 4.3 7.8 0.00 0.00 0.00 42 1019.7
20260830053336 79 142 0.0 7.8 0.00 0.00 0.00 41 1019.7
20260830053043 79 148 1.7 7.8 0.00 0.00 0.00 41 1020.0
20260830052317 79 152 1.7 8.7 0.00 0.00 0.00 40 1019.7
20260830051813 79 136 6.1 9.6 0.00 0.00 0.00 40 1019.4
20260830051312 79 163 4.3 9.6 0.00 0.00 0.00 40 1019.7
20260830050810 80 149 0.9 7.8 0.00 0.00 0.00 39 1019.7
20260830050305 80 121 3.5 7.8 0.00 0.00 0.00 39 1019.7
20260830045804 80 139 4.3 7.0 0.00 0.00 0.00 39 1019.7
20260830045251 80 156 1.7 7.0 0.00 0.00 0.00 39 1019.7
20260830044733 80 126 0.0 5.2 0.00 0.00 0.00 39 1019.7
20260830044212 80 169 0.0 6.1 0.00 0.00 0.00 38 1019.7
20260830043657 80 129 4.3 6.1 0.00 0.00 0.00 38 1019.4
20260830043142 81 121 0.0 5.2 0.00 0.00 0.00 38 1019.7
20260830042628 81 143 0.0 7.0 0.00 0.00 0.00 37 1019.7
20260830042113 81 157 0.0 6.1 0.00 0.00 0.00 37 1019.7
20260830042042 82 127 0.9 6.1 0.00 0.00 0.00 36 1020.0
20260830041319 82 135 0.9 6.1 0.00 0.00 0.00 36 1019.4
20260830040539 82 138 0.0 6.1 0.00 0.00 0.00 36 1019.4
20260830040035 82 146 0.0 7.0 0.00 0.00 0.00 35 1019.4
20260830035531 83 161 0.0 7.0 0.00 0.00 0.00 35 1019.7
20260830035030 83 140 2.6 6.1 0.00 0.00 0.00 35 1019.4
20260830034525 83 163 0.9 9.6 0.00 0.00 0.00 34 1019.4
20260830034020 84 159 1.7 9.6 0.00 0.00 0.00 34 1019.4
20260830033730 84 110 3.5 9.6 0.00 0.00 0.00 34 1019.4
20260830033010 84 132 6.1 9.6 0.00 0.00 0.00 34 1019.0
20260830032655 84 144 1.7 8.7 0.00 0.00 0.00 34 1019.4
20260830032541 84 117 6.1 8.7 0.00 0.00 0.00 33 1019.4
20260830031441 85 166 2.6 9.6 0.00 0.00 0.00 34 1019.4
20260830030935 85 145 5.2 9.6 0.00 0.00 0.00 34 1019.0
20260830030413 85 158 2.6 11.3 0.00 0.00 0.00 33 1019.0
20260830025912 85 129 5.2 11.3 0.00 0.00 0.00 34 1018.7
20260830025405 85 140 0.9 9.6 0.00 0.00 0.00 34 1018.7
20260830025130 85 114 3.5 13.9 0.00 0.00 0.00 33 1018.3
20260830024352 86 128 2.6 13.9 0.00 0.00 0.00 33 1018.3
20260830023840 86 170 0.0 13.0 0.00 0.00 0.00 33 1018.7
20260830023335 86 143 3.5 13.0 0.00 0.00 0.00 33 1018.3
20260830022828 87 131 5.2 12.2 0.00 0.00 0.00 32 1018.3
20260830022312 87 140 5.2 12.2 0.00 0.00 0.00 32 1018.0
20260830021811 87 124 7.8 13.0 0.00 0.00 0.00 32 1018.0
20260830021310 87 164 1.7 13.0 0.00 0.00 0.00 32 1018.0
20260830020757 87 150 0.9 11.3 0.00 0.00 0.00 31 1017.7
20260830020238 88 131 5.2 12.2 0.00 0.00 0.00 31 1018.0
20260830015735 88 128 6.1 12.2 0.00 0.00 0.00 31 1018.0
20260830015216 88 157 2.6 13.0 0.00 0.00 0.00 31 1017.7